Bridgeport, CT

2:21 AM EDT on May 27, 2017 (GMT -0400)
Sikorsky Memorial

Weather History for KBDR - November, 2012

Change the Weather History Date:

Wednesday, November 7, 2012

  Actual Average Record
Temperature  
Mean Temperature 35 °F 48 °F  
Max Temperature 39 °F 56 °F 68 °F (1975)
Min Temperature 31 °F 40 °F 25 °F (1962)
Degree Days  
Heating Degree Days 30 17  
Month to date heating degree days 151 112  
Since 1 July heating degree days 404 502  
Cooling Degree Days 0 0  
Month to date cooling degree days 0 0  
Year to date cooling degree days 1075 825  
Moisture  
Dew Point 29 °F    
Average Humidity 70    
Maximum Humidity 96    
Minimum Humidity 44    
Precipitation  
Precipitation 0.45 in 0.11 in 2.00 in (1963)
Month to date precipitation 0.45 0.75  
Year to date precipitation 35.90 36.77  
Snow  
Snow 5.40 in 0.00 in 6.00 in (2012)
Month to date snowfall 5.4 0.0  
Since 1 July snowfall 5.4 0.0  
Snow Depth 0.00 in    
Sea Level Pressure  
Sea Level Pressure 29.84 in    
Wind  
Wind Speed 19 mph (North)    
Max Wind Speed 29 mph    
Max Gust Speed 36 mph    
Visibility 3 miles    
Events Fog , Snow    
T = Trace of Precipitation, MM = Missing Value Source: NWS Daily Summary

Daily Weather History Graph

Daily Weather History Graph

Search for Another Location

Airport or City:

Trip Planner

Search our weather history database for the weather conditions in past years. The results will help you decide how hot, cold, wet, or windy it might be!

Date:

Astronomy

Nov. 07, 2012 Rise Set
Actual Time 6:31 AM EST 4:40 PM EST
Civil Twilight 6:02 AM EST 5:09 PM EST
Nautical Twilight 5:29 AM EST 5:42 PM EST
Astronomical Twilight 4:57 AM EST 6:14 PM EST
Moon No Moon Rise 12:51 PM EST (11/7)
Length of Visible Light 11h 07m
Length of Day
10h 09m
Last Quarter, 43% of the Moon is Illuminated
Nov 7
Last Quarter
Nov 13
New
Nov 20
First Quarter
Nov 28
Full
Dec 6
Last Quarter

Hourly Weather History & Observations

Time (EST) Temp. Windchill Dew Point Humidity Pressure Visibility Wind Dir Wind Speed Gust Speed Precip Events Conditions
12:52 AM 36.0 °F 26.7 °F 19.9 °F 52% 30.09 in 10.0 mi NNE 15.0 mph - N/A   Clear
1:52 AM 36.0 °F 26.3 °F 21.9 °F 57% 30.07 in 10.0 mi NNE 16.1 mph - N/A   Clear
2:52 AM 36.0 °F 25.6 °F 24.1 °F 62% 30.03 in 10.0 mi NNE 18.4 mph 27.6 mph N/A   Partly Cloudy
3:52 AM 37.0 °F 27.7 °F 25.0 °F 62% 30.01 in 10.0 mi NNE 16.1 mph 26.5 mph N/A   Mostly Cloudy
4:52 AM 37.0 °F 27.4 °F 25.0 °F 62% 30.00 in 10.0 mi NNE 17.3 mph 26.5 mph N/A   Mostly Cloudy
5:52 AM 37.4 °F 26.9 °F 26.6 °F 65% 29.99 in 10.0 mi NNE 20.7 mph 27.6 mph N/A   Scattered Clouds
6:52 AM 37.0 °F 27.4 °F 26.1 °F 65% 29.97 in 10.0 mi NNE 17.3 mph 25.3 mph N/A   Clear
7:52 AM 37.9 °F 27.9 °F 25.0 °F 60% 29.97 in 10.0 mi NNE 19.6 mph 25.3 mph N/A   Clear
8:52 AM 37.9 °F 28.9 °F 26.1 °F 62% 29.94 in 10.0 mi NNE 16.1 mph 26.5 mph N/A   Overcast
9:52 AM 37.9 °F 28.5 °F 26.1 °F 62% 29.92 in 10.0 mi NNE 17.3 mph 25.3 mph N/A   Overcast
10:33 AM 37.4 °F 26.6 °F 28.4 °F 70% 29.90 in 2.5 mi NNE 21.9 mph 31.1 mph 0.00 in Snow Light Snow
10:52 AM 37.0 °F 27.0 °F 30.0 °F 76% 29.90 in 2.5 mi NNE 18.4 mph 32.2 mph 0.01 in Snow Light Snow
11:36 AM 33.8 °F 21.6 °F 32.0 °F 93% 29.87 in 2.5 mi NNE 23.0 mph 31.1 mph 0.05 in Snow Light Snow
11:52 AM 34.0 °F 22.1 °F 32.0 °F 92% 29.86 in 2.5 mi North 21.9 mph 31.1 mph 0.07 in Snow Light Snow
11:55 AM 33.8 °F 21.9 °F 32.0 °F 93% 29.85 in 3.0 mi North 21.9 mph 31.1 mph 0.01 in Snow Light Snow
12:02 PM 33.8 °F 22.2 °F 32.0 °F 93% 29.85 in 2.5 mi North 20.7 mph 29.9 mph 0.01 in Snow Light Snow
12:05 PM 33.8 °F 22.2 °F 32.0 °F 93% 29.85 in 2.5 mi North 20.7 mph 28.8 mph 0.01 in Snow Light Snow
12:43 PM 33.8 °F 22.5 °F 30.2 °F 87% 29.84 in 2.5 mi North 19.6 mph 31.1 mph 0.03 in Snow Light Snow
12:52 PM 33.1 °F 21.2 °F 32.0 °F 96% 29.84 in 2.5 mi North 20.7 mph 28.8 mph 0.04 in Snow Light Snow
12:54 PM 33.8 °F 22.2 °F 32.0 °F 93% 29.84 in 0.8 mi North 20.7 mph 28.8 mph 0.00 in Snow Light Snow
1:52 PM 33.1 °F 20.6 °F 32.0 °F 96% 29.81 in 0.8 mi North 23.0 mph 35.7 mph 0.03 in Snow Light Snow
2:00 PM 33.8 °F 21.9 °F 32.0 °F 93% 29.81 in 0.8 mi North 21.9 mph 35.7 mph 0.01 in Snow Light Snow
2:52 PM 34.0 °F 21.8 °F 32.0 °F 92% 29.82 in 1.2 mi North 23.0 mph 31.1 mph 0.02 in Snow Light Snow
3:05 PM 33.8 °F 21.9 °F 30.2 °F 87% 29.82 in 0.8 mi North 21.9 mph 28.8 mph 0.01 in Snow Light Snow
3:27 PM 33.8 °F 22.2 °F 30.2 °F 87% 29.82 in 1.0 mi North 20.7 mph 29.9 mph 0.02 in Snow Light Snow
3:35 PM 33.8 °F 21.3 °F 30.2 °F 87% 29.82 in 0.8 mi North 24.2 mph 32.2 mph 0.02 in Snow Light Snow
3:42 PM 32.0 °F 19.5 °F 30.2 °F 93% 29.82 in 0.5 mi North 21.9 mph 33.4 mph 0.03 in Fog , Snow Snow
3:52 PM 32.0 °F 18.9 °F 30.9 °F 96% 29.82 in 0.5 mi North 24.2 mph 35.7 mph 0.03 in Fog , Snow Snow
4:36 PM 32.0 °F 19.8 °F 30.2 °F 93% 29.80 in 0.8 mi North 20.7 mph 33.4 mph 0.03 in Snow Light Snow
4:47 PM 32.0 °F 19.2 °F 30.2 °F 93% 29.79 in 0.8 mi North 23.0 mph 31.1 mph 0.04 in Snow Light Snow
4:52 PM 32.0 °F 18.9 °F 30.0 °F 92% 29.79 in 0.8 mi North 24.2 mph 34.5 mph 0.04 in Snow Light Snow
5:00 PM 30.2 °F 17.1 °F 30.2 °F 100% 29.79 in 1.0 mi North 21.9 mph 34.5 mph 0.00 in Snow Light Snow
5:39 PM 30.2 °F 17.1 °F 30.2 °F 100% 29.79 in 0.8 mi North 21.9 mph 31.1 mph 0.02 in Snow Light Snow
5:52 PM 32.0 °F 19.5 °F 30.9 °F 96% 29.80 in 1.0 mi North 21.9 mph 28.8 mph 0.03 in Snow Light Snow
6:52 PM 32.0 °F 20.5 °F 30.0 °F 92% 29.80 in 1.0 mi North 18.4 mph 26.5 mph 0.03 in Snow Light Snow
7:24 PM 32.0 °F 19.8 °F 30.2 °F 93% 29.79 in 0.8 mi North 20.7 mph 26.5 mph 0.02 in Snow Light Snow
7:32 PM 32.0 °F 19.8 °F 30.2 °F 93% 29.78 in 1.0 mi North 20.7 mph 29.9 mph 0.02 in Snow Light Snow
7:44 PM 32.0 °F 19.8 °F 30.2 °F 93% 29.78 in 0.8 mi North 20.7 mph 29.9 mph 0.03 in Snow Light Snow
7:52 PM 32.0 °F 20.1 °F 30.0 °F 92% 29.78 in 0.8 mi North 19.6 mph 31.1 mph 0.04 in Snow Light Snow
8:29 PM 32.0 °F 20.5 °F 30.2 °F 93% 29.77 in 1.0 mi North 18.4 mph 31.1 mph 0.01 in Snow Light Snow
8:52 PM 32.0 °F 21.2 °F 30.0 °F 92% 29.77 in 1.2 mi North 16.1 mph 29.9 mph 0.03 in Snow Light Snow
8:59 PM 32.0 °F 21.2 °F 30.2 °F 93% 29.77 in 1.5 mi North 16.1 mph 29.9 mph 0.00 in Snow Light Snow
9:27 PM 32.0 °F 20.1 °F 30.2 °F 93% 29.76 in 2.0 mi North 19.6 mph 27.6 mph 0.01 in Snow Light Snow
9:40 PM 32.0 °F 20.1 °F 28.4 °F 87% 29.75 in 3.0 mi North 19.6 mph 32.2 mph 0.02 in Snow Light Snow
9:49 PM 32.0 °F 19.5 °F 28.4 °F 87% 29.74 in 2.0 mi North 21.9 mph 32.2 mph 0.02 in Snow Light Snow
9:52 PM 32.0 °F 20.8 °F 28.9 °F 88% 29.74 in 2.0 mi North 17.3 mph 32.2 mph 0.02 in Snow Light Snow
10:05 PM 32.0 °F 20.5 °F 28.4 °F 87% 29.73 in 2.0 mi North 18.4 mph 28.8 mph 0.00 in Snow Light Snow
10:37 PM 32.0 °F 20.1 °F 30.2 °F 93% 29.73 in 1.2 mi North 19.6 mph 24.2 mph 0.01 in Snow Light Snow
10:52 PM 32.0 °F 19.8 °F 30.0 °F 92% 29.73 in 1.0 mi North 20.7 mph 32.2 mph 0.02 in Snow Light Snow
11:52 PM 33.1 °F 22.2 °F 30.9 °F 92% 29.72 in 1.8 mi North 17.3 mph 27.6 mph 0.04 in Snow Light Snow